Weather History for KVBT - November, 2011

Change the Weather History Date:

Sunday, November 20, 2011

  Actual Average Record
Temperature  
Mean Temperature 48 °F -  
Max Temperature 55 °F 58 °F 74 °F (1949)
Min Temperature 41 °F 35 °F 17 °F (1968)
Degree Days  
Heating Degree Days 16    
Moisture  
Dew Point 43 °F    
Average Humidity 84    
Maximum Humidity 93    
Minimum Humidity 71    
Precipitation  
Precipitation 0.41 in - - ()
Sea Level Pressure  
Sea Level Pressure 30.07 in    
Wind  
Wind Speed 7 mph (North)    
Max Wind Speed 12 mph    
Max Gust Speed -    
Visibility 6 miles    
Events Thunderstorm    
Averages and records for this station are not official NWS values.
T = Trace of Precipitation, MM = Missing Value Source: NWS Daily Summary

Daily Weather History Graph

Daily Weather History Graph

Search for Another Location

Airport or City:

Trip Planner

Search our weather history database for the weather conditions in past years. The results will help you decide how hot, cold, wet, or windy it might be!

Date:

Astronomy

Nov. 20, 2011 Rise Set
Actual Time 6:58 AM CST 5:05 PM CST
Civil Twilight 6:31 AM CST 5:33 PM CST
Nautical Twilight 5:59 AM CST 6:04 PM CST
Astronomical Twilight 5:29 AM CST 6:35 PM CST
Moon 1:36 AM CST (11/20) 1:48 PM CST (11/20)
Length of Visible Light 11h 02m
Length of Day
10h 06m
Waning Crescent, 27% of the Moon is Illuminated
Nov 20
Waning Crescent
Nov 25
New
Dec 2
First Quarter
Dec 10
Full
Dec 17
Last Quarter

Hourly Weather History & Observations

Time (CST) Temp. Windchill Dew Point Humidity Pressure Visibility Wind Dir Wind Speed Gust Speed Precip Events Conditions
12:15 AM 55.4 °F - 48.2 °F 77% 29.98 in 10.0 mi North 8.1 mph - N/A   Overcast
12:35 AM 55.4 °F - 46.4 °F 72% 29.99 in 10.0 mi North 9.2 mph - N/A   Overcast
12:55 AM 53.6 °F - 44.6 °F 72% 29.99 in 10.0 mi North 10.4 mph - N/A   Overcast
1:15 AM 53.6 °F - 44.6 °F 72% 29.98 in 10.0 mi North 9.2 mph - N/A   Overcast
1:35 AM 53.6 °F - 44.6 °F 72% 29.98 in 10.0 mi NNE 6.9 mph - N/A   Overcast
1:55 AM 53.6 °F - 44.6 °F 72% 29.99 in 10.0 mi North 9.2 mph - N/A   Overcast
2:15 AM 51.8 °F - 42.8 °F 71% 29.99 in 10.0 mi North 8.1 mph - N/A   Overcast
2:35 AM 51.8 °F - 42.8 °F 71% 30.00 in 10.0 mi North 9.2 mph - N/A   Overcast
2:55 AM 50.0 °F - 42.8 °F 76% 30.00 in 10.0 mi North 11.5 mph - N/A   Overcast
3:15 AM 48.2 °F - 42.8 °F 82% 30.00 in 10.0 mi NNE 8.1 mph - N/A   Overcast
3:35 AM 48.2 °F - 42.8 °F 82% 30.00 in 10.0 mi NNE 10.4 mph - N/A   Overcast
3:55 AM 48.2 °F - 41.0 °F 76% 30.00 in 10.0 mi NE 8.1 mph - N/A   Overcast
4:15 AM 48.2 °F - 41.0 °F 76% 30.00 in 10.0 mi NE 8.1 mph - N/A   Overcast
4:35 AM 48.2 °F - 42.8 °F 82% 30.01 in 10.0 mi NNE 8.1 mph - N/A   Overcast
4:55 AM 48.2 °F - 41.0 °F 76% 30.01 in 10.0 mi NNE 9.2 mph - N/A   Overcast
5:15 AM 48.2 °F - 41.0 °F 76% 30.02 in 10.0 mi NE 11.5 mph - N/A   Overcast
5:35 AM 48.2 °F - 41.0 °F 76% 30.02 in 10.0 mi NE 8.1 mph - N/A   Overcast
6:15 AM 48.2 °F - 42.8 °F 82% 30.03 in 9.0 mi NE 9.2 mph - N/A   Overcast
6:55 AM 48.2 °F - 42.8 °F 82% 30.04 in 10.0 mi NE 6.9 mph - N/A   Overcast
7:15 AM 48.2 °F - 42.8 °F 82% 30.05 in 8.0 mi NE 5.8 mph - N/A   Overcast
7:55 AM 48.2 °F - 42.8 °F 82% 30.06 in 7.0 mi Calm Calm - N/A   Overcast
8:15 AM 48.2 °F - 42.8 °F 82% 30.07 in 7.0 mi NNE 6.9 mph - N/A   Overcast
8:35 AM 48.2 °F - 44.6 °F 87% 30.08 in 6.0 mi NNE 6.9 mph - N/A   Overcast
8:55 AM 48.2 °F - 44.6 °F 87% 30.09 in 7.0 mi North 4.6 mph - N/A   Overcast
9:15 AM 48.2 °F - 44.6 °F 87% 30.09 in 7.0 mi NNE 5.8 mph - N/A   Overcast
9:35 AM 48.2 °F - 44.6 °F 87% 30.10 in 6.0 mi North 5.8 mph - N/A   Overcast
9:55 AM 48.2 °F - 44.6 °F 87% 30.10 in 6.0 mi North 6.9 mph - N/A   Overcast
10:15 AM 48.2 °F - 44.6 °F 87% 30.10 in 5.0 mi NNE 5.8 mph - N/A   Overcast
10:35 AM 50.0 °F - 44.6 °F 82% 30.10 in 5.0 mi NNE 5.8 mph - N/A   Overcast
10:55 AM 51.8 °F - 44.6 °F 76% 30.10 in 6.0 mi NE 3.5 mph - N/A   Overcast
11:15 AM 51.8 °F - 46.4 °F 82% 30.09 in 5.0 mi ENE 5.8 mph - N/A   Overcast
11:35 AM 53.6 °F - 46.4 °F 77% 30.08 in 7.0 mi East 5.8 mph - N/A   Overcast
12:15 PM 53.6 °F - 48.2 °F 82% 30.08 in 7.0 mi NNW 3.5 mph - N/A   Overcast
12:55 PM 51.8 °F - 46.4 °F 82% 30.07 in 5.0 mi NW 5.8 mph - N/A   Overcast
1:15 PM 51.8 °F - 46.4 °F 82% 30.08 in 3.0 mi NW 6.9 mph - N/A   Overcast
1:35 PM 50.0 °F - 46.4 °F 87% 30.08 in 2.5 mi NNW 5.8 mph - N/A   Overcast
1:55 PM 48.2 °F - 44.6 °F 87% 30.09 in 2.0 mi NW 6.9 mph - N/A   Overcast
2:15 PM 46.4 °F 43.5 °F 42.8 °F 87% 30.10 in 1.8 mi NNW 5.8 mph - N/A   Overcast
2:35 PM 46.4 °F 44.3 °F 42.8 °F 87% 30.10 in 1.5 mi NNW 4.6 mph - N/A   Overcast
2:55 PM 44.6 °F 42.2 °F 42.8 °F 93% 30.10 in 1.0 mi NNW 4.6 mph - N/A   Overcast
3:15 PM 44.6 °F 43.1 °F 42.8 °F 93% 30.11 in 1.2 mi NW 3.5 mph - N/A   Overcast
3:35 PM 44.6 °F 43.1 °F 42.8 °F 93% 30.11 in 1.5 mi NNW 3.5 mph - N/A   Overcast
3:55 PM 44.6 °F 43.1 °F 42.8 °F 93% 30.11 in 1.5 mi NNW 3.5 mph - N/A   Overcast
4:15 PM 44.6 °F 43.1 °F 42.8 °F 93% 30.11 in 1.8 mi North 3.5 mph - N/A   Overcast
4:35 PM 44.6 °F 40.7 °F 42.8 °F 93% 30.12 in 3.0 mi NNW 6.9 mph - N/A   Overcast
5:15 PM 44.6 °F 40.2 °F 42.8 °F 93% 30.13 in 1.8 mi North 8.1 mph - N/A   Overcast
5:35 PM 44.6 °F 40.7 °F 41.0 °F 87% 30.13 in 1.2 mi North 6.9 mph - N/A   Overcast
5:55 PM 42.8 °F 40.1 °F 41.0 °F 93% 30.14 in 1.2 mi NNW 4.6 mph - N/A   Overcast
6:15 PM 42.8 °F 40.1 °F 41.0 °F 93% 30.14 in 0.8 mi NNW 4.6 mph - N/A   Overcast
6:35 PM 42.8 °F 38.6 °F 41.0 °F 93% 30.14 in 0.8 mi NNW 6.9 mph - N/A   Overcast
6:55 PM 42.8 °F 40.1 °F 41.0 °F 93% 30.15 in 0.8 mi NNW 4.6 mph - N/A   Overcast
7:55 PM 42.8 °F 40.1 °F 41.0 °F 93% 30.16 in 7.0 mi NNW 4.6 mph - 0.07 in Thunderstorm Thunderstorm
8:15 PM 42.8 °F 38.6 °F 41.0 °F 93% 30.15 in 5.0 mi North 6.9 mph - 0.32 in Thunderstorm Thunderstorm
8:35 PM 42.8 °F 38.0 °F 39.2 °F 87% 30.12 in 8.0 mi NE 8.1 mph - 0.33 in   Overcast
8:55 PM 42.8 °F 37.5 °F 39.2 °F 87% 30.13 in 10.0 mi North 9.2 mph - 0.34 in   Overcast
9:15 PM 41.0 °F 36.4 °F 39.2 °F 93% 30.16 in 10.0 mi North 6.9 mph - N/A   Overcast
9:35 PM 41.0 °F 36.4 °F 39.2 °F 93% 30.14 in 10.0 mi ENE 6.9 mph - N/A   Overcast
9:55 PM 41.0 °F 37.1 °F 39.2 °F 93% 30.14 in 10.0 mi ENE 5.8 mph - N/A   Overcast
10:15 PM 42.8 °F 41.1 °F 39.2 °F 87% 30.12 in 10.0 mi NE 3.5 mph - N/A   Overcast
10:35 PM 42.8 °F 40.1 °F 39.2 °F 87% 30.12 in 10.0 mi ENE 4.6 mph - N/A   Overcast
10:55 PM 42.8 °F - 39.2 °F 87% 30.13 in 10.0 mi Calm Calm - N/A   Overcast
11:15 PM 42.8 °F 41.1 °F 39.2 °F 87% 30.11 in 10.0 mi NNE 3.5 mph - N/A   Overcast
11:35 PM 42.8 °F - 39.2 °F 87% 30.15 in 10.0 mi Calm Calm - N/A   Overcast
11:55 PM 42.8 °F - 39.2 °F 87% 30.13 in 10.0 mi Calm Calm - N/A   Overcast